Weather History for East Milton, MA

Change the Weather History Date:

Saturday, January 19, 2013

  Actual Average (KBOS) Record (KBOS)
Temperature  
Mean Temperature 34 °F 29 °F  
Max Temperature 46 °F 35 °F 61 °F (1951)
Min Temperature 21 °F 22 °F -6 °F (1904)
Degree Days  
Heating Degree Days 32 36  
Month to date heating degree days 680  
Since 1 July heating degree days 2674  
Cooling Degree Days 0 0  
Month to date cooling degree days 0  
Year to date cooling degree days 0  
Moisture  
Dew Point 22 °F    
Average Humidity 56    
Maximum Humidity 70    
Minimum Humidity 40    
Precipitation  
Precipitation 0.00 in 0.11 in 1.81 in (1942)
Month to date precipitation 2.09  
Year to date precipitation 2.09  
Sea Level Pressure  
Sea Level Pressure 30.13 in    
Wind  
Wind Speed 22 mph (SSW)    
Max Wind Speed 30 mph    
Max Gust Speed 45 mph    
T = Trace of Precipitation, MM = Missing Value Source: NWS Daily Summary

Daily Weather History Graph

Daily Weather History Graph

Search for Another Location

Airport:

Trip Planner

Search our weather history database for the weather conditions in past years. The results will help you decide how hot, cold, wet, or windy it might be!

Date:

Astronomy

Jan. 19, 2013 Rise Set
Actual Time 7:08 AM EST 4:42 PM EST
Civil Twilight 6:37 AM EST 5:13 PM EST
Nautical Twilight 6:03 AM EST 5:47 PM EST
Astronomical Twilight 5:29 AM EST 6:21 PM EST
Moon 11:08 AM EST (1/19) 12:37 AM EST (1/19)
Length of Visible Light 10h 35m
Length of Day
9h 34m
First Quarter, 57% of the Moon is Illuminated
Jan 19
First Quarter
Jan 26
Full
Feb 3
Last Quarter
Feb 10
New
Feb 17
First Quarter

Hourly Weather History & Observations

Time (EST) Temp. Windchill Dew Point Humidity Pressure Visibility Wind Dir Wind Speed Gust Speed Precip Events Conditions
12:54 AM 21.9 °F 7.3 °F 5.0 °F 48% 30.38 in - SSW 18.4 mph 23.0 mph N/A   Unknown
1:54 AM 23.0 °F 8.3 °F 7.0 °F 50% 30.36 in - South 19.6 mph 25.3 mph N/A   Unknown
2:54 AM 24.1 °F 9.0 °F 10.0 °F 55% 30.32 in - SSW 21.9 mph 31.1 mph N/A   Unknown
3:54 AM 26.1 °F 11.3 °F 12.9 °F 58% 30.30 in - SSW 23.0 mph 33.4 mph N/A   Unknown
4:54 AM 28.0 °F 13.0 °F 16.0 °F 61% 30.27 in - SSW 26.5 mph 34.5 mph N/A   Unknown
5:54 AM 30.0 °F 16.9 °F 19.0 °F 64% 30.23 in - South 21.9 mph 34.5 mph N/A   Unknown
6:54 AM 30.9 °F 17.8 °F 21.0 °F 67% 30.23 in - SSW 23.0 mph 38.0 mph N/A   Unknown
7:54 AM 32.0 °F 19.8 °F 21.0 °F 64% 30.21 in - SSW 20.7 mph 36.8 mph N/A   Unknown
8:54 AM 36.0 °F 23.9 °F 24.1 °F 62% 30.20 in - SSW 25.3 mph 39.1 mph N/A   Unknown
9:54 AM 37.9 °F 26.1 °F 25.0 °F 60% 30.19 in - SSW 27.6 mph 44.9 mph N/A   Unknown
10:54 AM 39.9 °F 28.6 °F 24.1 °F 53% 30.15 in - SSW 28.8 mph 40.3 mph N/A   Unknown
11:54 AM 42.1 °F 32.3 °F 23.0 °F 47% 30.10 in - SSW 24.2 mph 38.0 mph N/A   Unknown
12:54 PM 45.0 °F 36.0 °F 23.0 °F 42% 30.06 in - SSW 25.3 mph 39.1 mph N/A   Unknown
1:54 PM 46.0 °F 36.7 °F 23.0 °F 40% 30.04 in - SSW 29.9 mph 40.3 mph N/A   Unknown
2:54 PM 46.0 °F 36.7 °F 23.0 °F 40% 30.04 in - SW 29.9 mph 39.1 mph N/A   Unknown
3:54 PM 45.0 °F 36.2 °F 21.9 °F 40% 30.02 in - SW 24.2 mph 38.0 mph N/A   Unknown
4:54 PM 43.0 °F 35.1 °F 23.0 °F 45% 30.03 in - SW 17.3 mph 29.9 mph N/A   Unknown
5:54 PM 41.0 °F 33.1 °F 24.1 °F 51% 30.04 in - SSW 15.0 mph 23.0 mph N/A   Unknown
6:54 PM 39.9 °F 30.8 °F 26.1 °F 58% 30.03 in - SSW 18.4 mph 24.2 mph N/A   Unknown
7:54 PM 39.0 °F 30.6 °F 28.0 °F 65% 30.02 in - SSW 15.0 mph - N/A   Unknown
8:54 PM 39.0 °F 30.6 °F 28.9 °F 67% 30.01 in - SSW 15.0 mph 21.9 mph N/A   Unknown
9:54 PM 37.9 °F 28.5 °F 28.9 °F 70% 29.98 in - South 17.3 mph 24.2 mph N/A   Unknown
10:54 PM 39.0 °F 29.3 °F 30.0 °F 70% 29.95 in - South 19.6 mph 27.6 mph N/A   Unknown
11:54 PM 39.0 °F 29.6 °F 30.0 °F 70% 29.91 in - South 18.4 mph 26.5 mph N/A   Unknown